Regional Weather Roundup
Issued by NWS

Home | Current Version | Previous Version | Text Only | Print | Product List | Glossary On
Versions: 1 2 3 4 5 6 7 8 9 10 11 12 13 14 15 16 17 18 19 20 21 22 23 24 25 26 27 28 29 30 31 32 33 34 35 36 37 38 39 40 41 42 43 44 45 46 47 48 49 50
000
ASUS44 KJAN 261210
RWRMS

MISSISSIPPI HOURLY WEATHER ROUNDUP
NATIONAL WEATHER SERVICE JACKSON MS
600 AM CST FRI DEC 26 2014

NOTE: "FAIR: INDICATES FEW OR NO CLOUDS BELOW 12,000 FEET WITH NO
SIGNIFICANT WEATHER AND/OR OBSTRUCTIONS TO VISIBILITY.

MSZ001>002-007>008-010>013-018>021-025>028-034>036-261300-
NORTHWEST MISSISSIPPI

CITY           SKY/WX    TMP DP  RH WIND       PRES   REMARKS
CLARKSDALE     FAIR      39  37  93 S7        30.21R WCI  34
CLEVELAND      FAIR      42  39  89 S10       30.21R
GREENWOOD      NOT AVBL
GREENVILLE     MOCLDY    41  36  82 SE10      30.19S
6HR MIN TEMP:  39; 6HR MAX TEMP:  43;

GRENADA        FAIR      36  34  93 CALM      30.24R
OLIVE BRANCH   CLEAR     37  37 100 SE6       30.20R WCI  33
OXFORD         FAIR      37  32  81 SE6       30.23S WCI  33
TUNICA         MOSUNNY   41  36  81 S10       30.21R
$$

MSZ003>006-009-014>017-022>024-029>033-037>039-261300-
NORTHEAST MISSISSIPPI

CITY           SKY/WX    TMP DP  RH WIND       PRES   REMARKS
COLUMBUS AFB   PTCLDY    32  31  99 SE3       30.28S
6HR MIN TEMP:  31; 6HR MAX TEMP:  36;

CORINTH        FAIR      36  34  93 SE3       30.25R
GOLDN TRIANGLE CLEAR     36  34  93 E7        30.26F WCI  30
STARKVILLE     FAIR      32  32 100 CALM      30.27S
TUPELO         PTCLDY    33  31  92 MISG      30.26R
6HR MIN TEMP:  33; 6HR MAX TEMP:  39;

$$

MSZ040-058-261300-
CENTRAL MISSISSIPPI

CITY           SKY/WX    TMP DP  RH WIND       PRES   REMARKS
JACKSON INTL   MOCLDY    37  35  92 N3        30.24R
6HR MIN TEMP:  35; 6HR MAX TEMP:  40;

JACKSON HAWKNS MOCLDY    38  35  89 CALM      30.24R
6HR MIN TEMP:  36; 6HR MAX TEMP:  42;

MERIDIAN KEY   MOCLDY    32  31  96 NW5       30.27R WCI  27
6HR MIN TEMP:  32; 6HR MAX TEMP:  36;

MERIDIAN NAS   PTCLDY    32  31  96 CALM      30.28R
6HR MIN TEMP:  32; 6HR MAX TEMP:  36;

RAYMOND        FAIR      36  32  87 MISG      30.23S
VICKSBURG      CLOUDY    41  38  89 SE6       30.22R
6HR MIN TEMP:  39; 6HR MAX TEMP:  44;

$$

MSZ059>079-261300-
SOUTH MISSISSIPPI

CITY           SKY/WX    TMP DP  RH WIND       PRES   REMARKS
HATTIESBURG    MOCLDY    35  34  96 CALM      30.23R
6HR MIN TEMP:  34; 6HR MAX TEMP:  42;

MCCOMB         CLOUDY    42  39  89 CALM      30.20R
6HR MIN TEMP:  38; 6HR MAX TEMP:  42;

NATCHEZ        CLOUDY    43  37  81 CALM      30.20R
6HR MIN TEMP:  41; 6HR MAX TEMP:  46;

PINE BELT      MOCLDY    37  34  87 N5        30.23R WCI  34
6HR MIN TEMP:  34; 6HR MAX TEMP:  43;

$$

MSZ080>082-261300-
COASTAL MISSISSIPPI

CITY           SKY/WX    TMP DP  RH WIND       PRES   REMARKS
BILOXI         PTCLDY    45  44  96 NE3       30.19R
6HR MIN TEMP:  45; 6HR MAX TEMP:  55;

PASCAGOULA     PTCLDY    38  37  97 CALM      30.21R
6HR MIN TEMP:  35; 6HR MAX TEMP:  45;

GULFPORT       MOCLDY    44  42  93 N3        30.19R
6HR MIN TEMP:  42; 6HR MAX TEMP:  54;

$$


USA.gov is the U.S. government's official web portal to all federal, state and local government web resources and services.